Location: Brachbach
(49.1847°N, 9.7240°E)
Time: 02:34:10
(UTC+00:00)

ARIANE 6 FM1 Upper Stage - Pass Details

Date: 25 January 2026
Orbit: 522 x 609 km, 62.0° (Epoch: 13 February)

Event Time Altitude Azimuth Distance (km) Brightness Sun altitude
Rises 17:32:36 0° 214° (SW) 2,706 6.9 -14.0°
Reaches altitude 10° 17:34:50 10° 211° (SSW) 1,804 5.9 -14.4°
Maximum altitude 17:38:50 63° 130° (SE) 599 2.6 -15.0°
Enters shadow 17:40:51 27° 57° (ENE) 1,045 3.5 -15.3°
